OVZON-3

Last updated on Tue Sep 22 2026 00:03:16 GMT+0000 (Coordinated Universal Time)

1 58698U 24003A 26264.50094406 .00000047 00000+0 00000+0 0 9992 2 58698 0.0126 187.3653 0000516 267.6137 145.4698 1.00273924 8412
UTC large
Height (km)
Speed (km/s)
/
Latitude / Longitude
Inclination (degrees)
Orbital Period (minutes)
Azimuth
Elevation
Range (km)
Doppler Factor

Next 0 passes for location: London (51.5072 / 0.1276)

No passes found over London.
OVZON-3